CST,Max TemperatureF,Mean TemperatureF,Min TemperatureF,Max Dew PointF,MeanDew PointF,Min DewpointF,Max Humidity, Mean Humidity, Min Humidity, Max Sea Level PressureIn, Mean Sea Level PressureIn, Min Sea Level PressureIn, Max VisibilityMiles, Mean VisibilityMiles, Min VisibilityMiles, Max Wind SpeedMPH, Mean Wind SpeedMPH, Max Gust SpeedMPH,PrecipitationIn, CloudCover, Events, WindDirDegrees
2012-12-1,63,49,34,52,45,32,93,80,67,30.12,30.01,29.89,10,7,2,20,9,24,T,4,,174
2012-12-2,61,54,47,55,51,46,100,88,75,30.04,30.00,29.88,10,4,0,17,5,23,0.03,4,Fog-Rain,136
2012-12-3,70,62,54,61,56,48,100,82,63,30.00,29.90,29.77,10,5,0,28,14,36,0.07,7,Fog-Rain,190
2012-12-4,59,49,38,44,34,28,83,57,31,30.32,30.15,29.95,10,10,10,14,5,21,0.01,2,Rain,332
2012-12-5,44,37,30,30,26,21,82,66,49,30.45,30.33,30.19,10,10,10,13,7,17,0.00,0,,86
2012-12-6,49,42,35,41,35,29,89,78,66,30.17,30.03,29.94,10,10,6,13,7,17,0.01,2,Rain,173
2012-12-7,46,45,43,43,43,41,100,93,86,29.96,29.91,29.86,3,2,1,12,5,15,0.10,8,Rain,45
2012-12-8,42,39,36,41,35,32,100,90,79,30.07,30.00,29.87,10,8,2,15,6,21,0.02,7,Rain,43
2012-12-9,44,38,31,43,36,26,100,90,79,30.03,29.85,29.76,10,6,1,18,9,24,0.07,8,Rain,135
2012-12-10,31,28,24,23,21,20,88,82,75,30.04,29.93,29.83,10,10,7,17,9,26,0.00,8,,293
2012-12-11,35,26,17,22,19,15,92,77,61,30.21,30.10,30.03,10,10,10,17,7,22,0.00,0,,218
2012-12-12,47,35,23,28,23,19,81,60,38,30.32,30.27,30.21,10,10,10,18,9,24,0.00,0,,183
2012-12-13,46,37,27,31,26,24,85,64,42,30.30,30.22,30.13,10,10,10,23,11,29,0.00,0,,190
2012-12-14,51,40,29,36,30,24,78,64,49,30.21,30.12,29.98,10,10,9,18,6,23,T,1,,166
2012-12-15,51,47,42,48,44,35,100,83,65,29.96,29.68,29.56,10,5,2,22,13,29,0.58,8,Rain,186
2012-12-16,50,44,37,45,37,33,93,83,73,29.78,29.71,29.63,10,8,4,16,7,22,0.01,8,,277
2012-12-17,38,36,33,32,31,29,89,83,76,29.78,29.74,29.67,10,6,4,9,2,12,0.00,8,,313
2012-12-18,51,41,31,38,32,28,92,73,54,29.90,29.73,29.56,10,7,4,26,11,36,0.00,6,,206
2012-12-19,41,38,35,39,34,29,92,84,75,30.06,29.87,29.61,10,6,2,20,8,28,0.44,7,Rain-Thunderstorm,88
2012-12-20,51,37,22,49,34,17,100,91,81,29.80,29.37,29.09,10,4,0,25,15,40,0.53,8,Fog-Rain-Snow,295
2012-12-21,26,21,15,16,12,10,84,71,57,30.29,30.12,29.82,10,10,9,28,12,40,0.00,1,,303
2012-12-22,33,22,10,23,16,7,96,78,59,30.30,30.16,29.96,10,8,0,12,4,15,0.00,0,Fog,186
2012-12-23,35,27,18,27,22,17,100,78,56,30.04,29.98,29.94,10,7,4,12,4,15,0.00,1,,54
2012-12-24,30,26,22,26,22,18,92,87,81,30.16,29.99,29.87,8,5,3,16,7,22,T,7,,320
2012-12-25,28,24,19,22,19,14,88,79,69,30.34,30.25,30.17,10,10,6,14,6,23,0.00,6,,12
2012-12-26,30,28,26,23,21,19,81,77,72,30.17,30.09,30.01,10,10,10,16,10,26,0.00,7,,360
2012-12-27,31,27,23,22,20,18,81,75,69,30.23,30.17,30.14,10,10,10,12,4,14,0.00,8,,86
2012-12-28,32,30,28,27,25,21,85,80,75,30.11,30.00,29.90,10,8,5,10,4,14,0.00,8,,144
2012-12-29,30,21,12,27,18,10,92,78,63,30.32,30.10,29.89,10,6,1,18,9,28,T,7,Snow,303
2012-12-30,37,25,12,26,19,10,92,78,63,30.40,30.30,30.14,10,8,5,20,7,25,0.00,0,,201
2012-12-31,36,28,20,30,23,13,92,74,56,30.18,30.12,30.08,10,6,0,21,8,30,0.11,7,Fog-Snow,289